Theta_e
293 293 291 291 290 289 289 289 289 289 288 288 288 288 288 288 288 288 287 287 287 287 286 286 286 286 286 286 286 285 286 286 286 286 285 285 284 284 283 283 283 283 283 282 282 282 281 281 281 281 281 280 280 279 278 278 278 277 277 277 277 276 276 275 275 275 277 277 276 276 276 275 275 275 275 275 276 275 274 274 274 274 275 275 275
292 292 291 290 290 289 289 289 288 288 288 288 288 288 288 288 288 288 287 287 287 287 287 287 287 286 286 286 285 285 285 286 286 286 285 285 284 283 283 283 283 282 282 282 282 282 281 281 281 281 280 280 279 279 278 278 278 278 277 277 276 276 275 275 274 274 275 276 276 275 275 275 275 275 274 274 274 274 274 274 274 274 274 275 275
292 292 291 290 289 289 289 289 288 288 288 287 287 288 288 288 288 287 287 287 286 286 287 287 286 286 285 285 285 285 286 286 285 285 285 284 284 283 283 282 282 282 282 282 282 281 281 281 280 280 280 279 278 278 278 278 278 278 277 276 276 275 275 274 274 274 274 275 275 275 275 274 274 274 274 274 274 274 274 274 274 274 274 275 275
291 291 290 290 289 289 289 288 288 288 288 287 287 287 287 287 287 287 287 287 286 286 286 286 286 285 285 285 285 285 286 286 285 285 284 284 283 283 282 282 282 282 282 282 281 281 281 280 280 280 279 279 278 278 278 278 278 277 277 276 275 275 275 274 274 273 273 273 274 274 273 273 273 273 274 274 274 274 274 274 274 274 275 275 275
291 290 290 290 289 289 289 288 288 288 288 287 287 287 287 287 287 287 287 287 286 286 286 286 285 285 285 285 285 286 286 286 285 285 284 283 283 282 282 282 282 282 281 281 281 281 280 280 280 279 279 279 278 278 278 278 277 277 276 275 275 275 274 274 274 273 273 273 273 273 273 273 273 274 274 274 274 274 274 274 275 275 275 275 275
291 290 290 290 289 289 289 288 288 288 288 288 287 287 287 287 287 287 287 287 286 286 286 286 285 285 285 285 286 286 286 285 285 284 284 283 283 282 282 281 281 281 281 281 281 280 280 280 280 279 279 279 278 278 278 277 277 276 275 275 275 274 274 274 273 273 273 273 273 273 273 273 274 274 274 274 274 274 274 275 275 275 275 275 276
290 290 290 289 289 289 289 288 288 288 288 288 287 287 287 287 287 287 286 286 286 286 286 286 285 285 285 285 286 286 286 285 285 284 283 283 282 282 282 281 281 281 281 281 280 280 280 280 279 279 279 279 278 278 278 277 276 275 275 274 275 274 274 274 274 273 273 273 273 274 274 274 274 274 274 274 275 275 275 275 275 275 275 276 276
289 289 289 289 289 289 288 288 288 288 288 287 287 286 287 287 287 287 286 286 286 287 286 286 285 284 285 285 286 286 285 285 285 284 283 283 282 282 281 281 281 281 280 280 280 280 280 279 279 279 279 279 278 278 277 277 276 275 275 275 274 274 274 274 274 274 274 274 274 274 274 275 275 275 275 275 275 275 275 275 276 275 276 276 276
289 289 288 289 289 288 288 287 288 287 287 286 286 286 286 287 287 286 286 286 287 287 286 285 285 284 285 285 286 285 285 285 285 284 283 283 282 282 281 281 281 280 280 280 280 280 279 279 279 279 279 278 278 278 277 276 275 275 275 275 274 274 274 274 274 274 274 274 274 275 275 275 275 275 275 275 275 275 275 275 275 275 275 275 276
288 288 288 288 288 287 287 287 287 287 286 286 286 286 286 287 286 286 286 286 286 286 286 285 285 285 285 285 286 285 285 285 284 284 283 283 282 282 281 281 281 280 280 280 280 279 279 279 279 279 279 278 278 277 277 276 275 275 275 275 275 274 274 274 274 274 275 275 275 276 276 275 275 275 275 275 275 275 275 275 275 275 275 275 275
288 288 287 287 287 287 286 286 286 286 286 286 286 286 286 286 286 286 286 286 286 286 285 285 285 285 285 286 286 286 286 285 284 283 283 283 282 282 281 281 281 280 280 280 279 279 279 279 279 279 278 278 278 277 277 276 275 275 275 275 275 275 275 275 275 275 275 276 276 276 275 275 275 275 275 275 274 274 275 275 275 274 274 274 274
288 287 287 287 286 286 286 286 285 285 285 285 286 286 286 286 286 286 286 286 286 285 285 285 285 285 285 286 286 286 286 285 284 283 283 283 282 281 281 281 281 280 280 280 279 279 279 279 279 278 278 278 278 277 277 276 275 275 274 274 275 275 275 276 276 276 276 276 276 275 275 275 275 274 274 274 274 274 274 274 274 273 273 273 273
288 287 287 287 286 286 285 285 285 285 285 285 286 286 286 286 286 286 286 286 285 285 284 284 285 285 285 286 286 286 286 285 284 283 283 283 282 282 281 282 282 281 280 280 279 279 279 279 279 279 278 278 278 277 277 276 275 275 274 275 275 275 276 276 276 276 276 276 275 275 275 274 274 274 274 274 274 274 273 273 272 272 272 272 271
287 287 287 286 286 285 285 285 285 285 285 285 285 285 285 286 286 286 286 285 285 284 284 284 285 285 286 286 286 286 286 285 284 283 283 283 282 282 282 282 282 281 280 280 279 279 279 279 279 279 278 278 278 277 277 276 275 275 274 275 275 275 275 275 275 275 275 275 274 274 274 273 273 274 274 274 273 273 272 271 271 271 271 270 270
287 287 287 286 286 285 285 285 285 284 284 284 284 284 285 286 286 286 285 285 285 285 285 285 285 285 286 286 286 286 286 285 284 284 283 283 282 281 282 283 283 282 281 280 279 279 279 279 279 278 278 278 278 277 276 276 275 274 275 275 275 275 275 275 275 275 274 274 274 273 273 273 274 274 274 273 272 271 271 270 270 269 269 269 270
287 287 287 286 286 285 285 285 284 284 284 284 283 284 284 285 285 285 285 284 285 285 285 285 285 286 286 286 286 286 286 285 284 284 283 283 281 280 281 283 283 283 282 280 280 279 279 279 278 278 278 278 278 277 276 275 275 274 274 275 275 275 275 275 275 274 274 274 273 273 273 274 274 273 272 271 270 270 270 269 269 268 268 269 269
288 288 287 287 286 286 285 285 284 284 284 283 283 284 284 284 284 284 284 284 284 285 285 285 285 286 286 286 286 286 286 285 285 284 283 282 281 280 281 282 282 283 282 281 280 279 279 278 278 278 278 278 277 276 275 275 274 274 274 275 275 276 275 275 274 274 273 273 273 273 273 273 272 271 271 270 270 269 269 268 268 268 268 268 268
288 288 287 287 286 286 285 285 285 284 284 283 284 284 284 284 284 284 284 284 285 285 285 285 285 285 285 286 286 286 286 286 285 284 284 282 281 281 281 281 282 282 282 281 280 279 279 279 278 278 277 277 277 276 275 275 274 274 275 275 276 276 275 275 274 273 272 272 272 272 272 272 271 270 270 270 270 268 268 267 267 267 267 267 267
288 288 287 287 286 286 286 285 285 285 284 284 284 284 283 283 283 283 284 284 285 285 285 285 285 285 285 285 285 285 286 285 285 284 284 282 280 280 280 280 281 282 282 281 280 279 279 279 278 277 277 277 276 275 274 274 275 275 275 276 276 276 275 274 274 273 272 272 272 272 271 271 270 270 270 270 270 268 267 267 267 266 266 267 267
288 288 288 287 287 286 286 286 285 285 285 285 284 284 284 283 283 283 283 283 283 283 283 284 284 285 285 285 285 285 285 285 285 284 283 282 280 280 280 280 281 282 282 281 280 279 279 279 279 278 277 276 276 275 274 275 275 276 276 276 276 275 274 274 274 273 272 272 272 272 271 270 270 270 270 270 270 268 267 266 266 266 266 266 267
288 288 288 287 287 287 286 286 286 286 285 285 285 284 284 283 283 283 283 283 282 282 282 282 283 284 284 284 284 285 285 285 285 284 283 281 280 280 280 280 282 282 282 281 280 280 279 279 279 278 276 275 275 275 275 276 276 277 277 277 276 275 275 274 274 273 273 272 272 271 270 270 270 270 270 269 269 269 267 267 266 266 266 266 267
288 288 288 287 287 287 287 286 286 286 285 285 284 284 284 283 283 283 282 282 282 281 281 281 282 282 282 283 283 284 284 284 284 284 282 281 280 280 280 281 281 281 280 280 280 280 280 280 279 278 276 275 275 275 276 276 277 277 277 276 276 275 275 274 274 273 272 272 271 270 270 270 270 270 270 269 269 269 268 267 266 266 266 266 266
288 288 288 288 287 287 287 287 286 286 286 285 285 284 284 283 283 282 282 282 281 281 281 281 280 281 281 282 282 283 284 284 284 284 283 282 280 279 280 280 280 279 279 280 281 280 280 279 278 277 276 274 274 275 276 277 277 277 277 276 276 275 274 274 273 272 272 271 270 270 270 270 270 269 269 269 269 269 268 268 267 266 266 266 266
288 288 288 288 288 287 287 287 287 286 286 285 285 284 284 283 283 282 282 281 281 280 281 280 280 279 280 281 282 283 283 283 283 283 283 282 281 279 279 279 279 279 279 279 280 279 279 278 278 276 275 274 274 275 276 276 277 277 276 276 275 274 273 273 272 272 271 270 269 269 269 270 269 269 268 268 268 268 268 268 268 267 266 266 266
289 288 288 288 288 288 287 287 287 286 286 285 285 284 284 283 282 282 281 281 280 280 280 279 279 279 279 279 281 282 282 282 283 283 282 282 281 279 278 278 279 279 278 278 278 278 278 277 276 275 274 274 274 275 276 276 277 277 276 275 274 273 272 271 271 270 270 269 269 269 269 269 269 268 268 267 268 268 268 268 268 268 267 266 266
290 289 289 289 288 288 287 287 286 286 286 285 285 285 284 284 283 282 281 281 280 280 279 279 278 278 278 279 280 281 280 280 281 282 281 280 280 278 277 277 278 279 279 278 278 278 277 276 275 274 274 274 274 275 275 275 276 276 276 275 274 273 271 270 270 269 269 269 269 268 269 269 269 268 267 267 267 267 267 267 267 268 267 266 266
291 290 290 290 289 288 287 287 286 286 285 285 285 284 284 283 283 282 281 280 280 279 279 278 277 277 277 278 278 278 278 278 279 279 279 279 279 278 276 276 276 278 278 278 278 278 277 276 275 275 274 275 275 275 274 275 275 275 275 275 274 273 271 270 269 269 268 268 268 268 268 268 268 268 267 267 267 267 267 266 266 266 266 265 265
291 291 290 290 290 289 289 288 287 287 286 286 285 285 284 283 283 283 282 282 281 280 279 278 278 278 278 278 277 277 277 277 278 278 278 278 278 278 277 276 276 276 277 278 278 278 277 276 276 275 275 275 275 275 275 275 275 275 275 274 274 273 271 270 269 268 268 268 268 267 268 268 267 267 267 267 267 267 267 266 265 265 265 265 265
290 290 290 290 290 289 289 289 288 288 287 286 286 286 285 284 284 284 284 283 282 281 280 280 280 279 279 278 277 276 277 278 278 278 278 277 277 278 278 278 277 276 276 276 277 277 277 277 276 276 276 276 276 275 275 275 274 274 274 274 273 272 271 270 269 268 268 268 267 267 267 267 267 267 267 267 267 267 266 265 265 265 265 265 265
289 289 289 289 289 288 288 288 288 288 287 286 286 286 285 284 283 283 283 282 281 281 280 280 280 279 278 278 278 277 278 278 278 277 277 276 276 277 277 277 277 276 275 275 276 277 276 276 276 275 275 275 275 275 274 274 273 273 273 273 272 272 271 270 269 268 268 267 266 266 266 266 266 266 266 266 267 267 267 265 265 264 264 264 264
287 287 287 287 287 287 287 287 287 287 286 286 285 285 284 284 283 282 281 280 280 279 279 279 278 278 277 278 277 277 277 277 276 276 276 275 275 276 276 276 276 275 274 274 275 276 276 275 275 274 274 274 274 274 274 273 273 273 272 272 272 272 271 271 269 268 268 267 266 266 266 266 266 265 265 265 266 266 266 266 265 264 264 264 264
285 286 286 286 285 285 285 285 285 285 285 284 283 283 282 282 282 282 281 280 279 278 278 278 277 277 277 277 277 277 277 277 276 276 276 276 276 276 276 276 276 275 275 274 275 275 275 275 274 274 273 273 273 273 273 272 272 272 272 272 272 272 271 271 270 269 268 267 266 266 266 266 265 265 265 265 264 264 265 265 264 264 264 264 264
283 283 283 283 283 283 283 283 283 283 283 282 282 281 280 280 280 280 280 280 279 278 277 277 277 277 277 277 277 277 277 277 277 276 276 276 276 276 276 276 276 276 276 275 275 275 274 274 274 273 273 273 272 272 272 272 272 272 272 272 272 272 271 271 270 268 267 266 266 266 266 266 265 264 264 264 264 263 264 264 264 264 263 264 264
282 281 281 281 281 281 281 281 281 281 280 280 280 279 279 278 278 278 277 277 277 277 276 276 276 276 276 277 277 277 277 277 277 277 276 276 276 276 276 277 277 277 277 276 276 275 274 274 273 273 273 273 272 272 272 272 272 272 272 272 272 272 271 270 269 268 267 266 265 265 265 265 265 264 264 264 263 263 263 263 263 263 263 263 263
280 280 280 280 280 279 279 279 279 278 278 278 278 278 277 277 277 276 275 275 275 275 275 275 275 275 275 275 276 276 276 277 277 277 277 276 276 276 276 277 277 277 277 277 276 276 275 275 274 274 273 273 273 272 272 272 272 272 272 272 272 271 271 270 269 268 267 266 265 265 265 265 264 264 263 263 263 262 263 263 263 263 263 263 263
280 279 279 279 278 278 278 277 277 277 277 276 276 276 276 275 275 275 274 273 273 273 273 273 273 273 273 274 274 275 275 276 276 276 277 277 277 276 276 276 277 277 277 277 277 276 276 276 275 274 274 273 273 273 273 272 272 272 272 272 271 271 270 269 269 268 267 266 265 265 265 264 264 264 263 262 262 262 262 262 262 262 262 263 263
278 278 278 277 277 277 276 276 276 275 275 275 275 274 274 274 273 273 272 272 272 271 271 271 271 271 271 272 272 273 273 274 274 275 276 276 277 276 276 276 276 276 276 276 276 276 276 276 275 275 274 274 273 273 272 272 272 272 272 271 270 270 269 269 269 268 266 265 265 265 264 264 264 264 263 262 262 262 262 262 262 262 262 262 262
276 276 276 275 275 275 274 274 274 273 273 273 273 273 272 272 272 271 271 271 270 270 270 270 269 269 270 270 270 271 271 272 272 273 275 275 276 276 275 275 275 275 275 275 275 275 275 275 275 274 274 273 273 272 272 271 271 271 271 270 270 269 269 268 268 267 266 265 265 265 264 264 264 264 263 262 262 262 262 261 261 261 261 262 262
274 273 273 273 272 272 272 272 271 271 271 271 271 271 271 270 270 270 270 270 269 269 269 269 268 268 268 269 269 269 270 270 270 271 272 273 274 274 274 273 273 272 272 272 272 272 272 272 272 272 272 272 272 271 271 271 270 270 270 270 269 269 268 268 267 266 266 265 264 264 264 264 264 263 262 262 261 261 261 261 261 261 261 261 261
273 272 272 271 271 271 271 271 270 270 270 270 270 270 270 269 269 269 269 269 268 268 268 268 268 267 267 267 268 268 268 268 269 269 269 270 271 271 271 271 270 270 269 269 269 269 269 269 269 269 269 269 269 269 270 269 269 269 269 269 268 268 267 267 266 266 266 265 264 264 264 264 263 263 262 262 262 261 261 261 260 260 260 261 261
273 272 272 271 271 271 270 270 270 270 269 269 269 269 269 268 268 268 268 267 267 267 267 267 266 266 266 266 267 268 268 267 267 268 267 268 268 268 268 268 268 268 267 267 267 267 267 266 266 266 266 267 267 267 267 267 267 267 267 267 267 266 266 266 265 265 265 264 264 264 263 263 263 262 262 262 261 261 260 260 260 260 260 260 260
272 272 271 271 271 270 269 269 268 268 268 268 268 267 267 267 267 267 266 266 266 266 266 266 266 266 266 266 266 267 267 266 266 266 266 266 266 266 266 266 266 266 265 265 265 265 265 265 265 264 264 264 264 265 265 265 265 266 266 266 265 265 265 265 264 265 264 264 264 263 263 263 262 262 262 261 261 260 260 260 260 260 260 259 259
270 270 270 269 269 269 269 268 267 267 267 267 267 267 266 266 266 266 265 265 265 265 265 265 265 265 265 265 265 265 265 265 264 264 264 264 264 264 264 264 264 264 264 264 264 264 263 263 263 263 263 263 263 263 263 264 264 264 264 264 264 264 263 263 263 264 264 263 263 263 263 262 262 261 261 261 260 260 260 259 259 260 260 260 260
269 268 268 268 268 268 267 267 267 267 266 266 266 266 265 265 265 265 264 264 264 264 264 263 263 263 263 263 263 263 263 263 263 263 262 262 262 262 262 262 262 262 262 262 262 262 262 262 262 262 262 262 262 262 262 262 263 263 263 263 262 262 262 262 263 263 263 263 262 262 262 262 261 261 260 260 260 260 259 259 259 259 259 259 259
267 267 267 267 267 267 266 266 266 265 265 265 265 264 264 264 264 263 263 263 263 263 262 262 262 262 262 262 262 262 262 262 262 262 262 261 261 261 261 261 261 261 262 262 262 262 261 261 261 261 261 261 261 261 261 261 262 262 262 261 261 261 261 262 262 262 262 261 261 261 261 261 261 260 260 260 260 259 259 260 259 259 258 258 258
267 267 266 266 266 265 265 265 264 264 264 264 263 263 263 263 262 262 262 262 262 261 261 261 261 261 261 261 261 261 261 261 261 261 261 261 261 261 261 261 261 261 261 261 261 261 261 261 261 261 261 261 261 261 261 261 261 261 261 261 261 261 261 261 261 261 260 260 260 260 260 260 260 260 260 260 260 259 259 259 259 258 258 258 258
266 265 265 265 264 264 264 264 263 263 263 263 263 262 262 262 262 262 261 261 261 261 261 261 261 261 261 261 261 261 261 261 261 261 261 261 261 261 261 261 261 261 261 261 261 261 261 261 261 261 261 261 261 261 261 261 261 261 261 261 260 261 261 261 260 260 260 260 260 259 259 259 259 259 260 259 259 259 259 259 259 258 258 258 258
265 264 264 264 264 263 263 263 263 262 262 262 262 262 261 261 261 261 261 261 261 261 261 261 261 261 261 261 261 261 261 261 261 261 261 261 261 261 261 261 261 261 261 261 261 261 261 261 261 261 260 261 261 261 261 261 261 261 261 261 261 261 260 260 260 260 260 260 259 259 259 259 259 259 259 259 259 259 259 259 259 258 258 258 258
264 264 264 263 263 263 263 262 262 262 262 262 261 261 261 261 261 261 261 261 261 261 261 261 261 261 261 261 261 261 261 261 261 261 261 261 261 261 261 261 261 261 261 261 261 261 261 261 261 261 261 260 260 260 260 260 260 260 261 261 260 260 260 260 260 260 260 260 260 259 259 259 259 259 259 259 259 258 258 258 258 258 258 257 257
263 263 263 263 263 262 262 262 262 262 262 261 262 261 261 261 261 261 261 261 261 261 261 261 261 261 261 261 261 261 261 261 261 261 261 261 261 261 261 261 261 261 261 261 261 261 261 261 261 261 261 261 261 261 261 261 261 261 261 261 260 260 260 260 260 260 260 260 260 260 260 259 259 259 259 259 258 258 258 258 258 258 258 257 257
263 263 263 262 262 262 262 262 262 262 261 261 261 261 261 261 261 261 261 261 261 261 261 261 261 261 261 261 261 261 261 261 261 261 261 261 261 261 261 261 261 261 261 261 261 261 261 261 260 261 261 261 261 261 261 261 261 261 261 261 261 260 260 260 260 260 260 260 260 259 259 259 259 259 259 259 258 258 258 258 258 258 258 257 258
Wind_Speed
41 41 42 43 44 44 43 42 41 40 40 39 37 36 34 33 32 31 29 28 27 26 24 23 21 20 19 18 17 16 15 13 11 10 9 8 8 8 8 8 8 8 8 8 8 7 7 6 6 6 6 6 5 4 3 2 2 2 2 3 3 4 7 7 9 18 25 22 20 25 27 28 30 30 31 33 34 34 33 32 33 33 33 34 34
42 42 43 44 45 45 44 43 42 41 41 39 38 37 35 34 33 32 30 29 28 26 25 23 21 20 19 18 17 16 14 12 11 10 9 9 9 9 10 10 10 10 10 9 8 8 8 8 8 7 7 6 6 4 3 3 3 3 4 4 6 6 8 10 10 14 22 26 24 26 27 27 28 30 30 33 35 35 34 33 33 33 33 34 34
42 43 44 45 45 45 44 44 43 42 42 41 39 38 36 35 34 32 31 30 28 26 24 23 22 21 20 19 18 17 14 12 11 10 10 10 10 11 11 11 11 11 10 10 9 9 9 10 9 8 7 7 6 5 5 5 5 5 5 6 8 9 8 9 10 11 18 25 24 24 28 28 27 29 31 32 32 33 34 34 33 33 33 33 32
43 44 45 45 45 45 45 44 44 43 43 42 40 39 37 36 35 33 32 30 29 27 25 23 23 22 21 20 19 16 14 12 12 11 11 12 12 12 11 11 11 11 11 11 11 11 10 10 10 9 8 7 7 7 6 6 6 6 6 8 9 9 8 8 9 10 14 22 24 23 25 26 27 29 31 34 33 32 33 33 34 33 32 31 31
44 45 45 45 44 45 45 45 45 44 43 43 41 40 38 37 36 34 32 31 29 28 26 25 24 23 22 21 19 16 14 13 14 13 13 13 12 12 11 11 12 11 11 11 11 11 11 10 10 9 9 8 8 8 7 7 7 7 8 9 9 8 8 8 9 10 12 18 24 24 22 25 29 29 28 31 35 34 33 33 32 31 31 30 29
44 45 45 45 45 45 45 46 46 45 44 43 42 41 39 38 36 35 33 32 30 29 27 26 25 24 23 21 19 16 15 15 15 14 14 13 13 12 12 12 12 12 12 12 12 11 11 10 11 11 10 10 9 9 9 8 8 8 8 9 8 7 8 9 9 9 10 14 20 23 24 25 28 31 29 28 31 33 35 35 30 26 27 29 30
43 44 44 44 44 44 45 45 45 45 44 43 42 41 40 39 37 35 34 32 31 29 28 27 26 24 23 22 19 16 16 16 16 15 15 14 13 13 13 12 12 12 12 12 12 11 11 11 12 12 11 11 11 10 10 9 8 9 9 8 8 8 8 9 9 9 12 15 18 21 24 25 27 31 31 28 28 28 28 30 30 27 27 29 30
42 42 42 42 43 44 44 44 44 44 43 43 43 42 41 39 37 36 34 33 31 30 28 28 27 26 24 21 19 18 18 17 17 17 16 15 14 14 13 13 12 12 12 12 12 12 12 12 12 13 13 12 11 11 10 9 9 10 9 9 9 9 8 8 9 11 13 16 18 20 23 25 26 28 28 25 26 25 22 25 29 30 29 30 30
40 41 41 42 43 43 42 42 42 43 43 43 43 42 41 40 38 36 35 33 31 29 29 29 28 27 25 22 20 20 19 18 18 17 16 15 15 14 14 13 13 12 12 12 12 13 13 13 13 13 13 13 12 12 11 10 10 11 10 10 9 9 9 8 10 12 14 16 17 19 19 19 20 23 25 23 23 25 25 25 28 29 29 31 30
39 40 41 41 41 40 40 41 42 42 43 43 43 43 42 41 39 37 35 34 32 31 30 30 29 28 26 24 23 21 20 19 19 18 16 15 15 15 14 14 13 12 12 13 14 14 14 14 14 13 14 13 13 13 12 12 12 12 11 11 10 9 9 10 11 13 15 16 16 17 18 18 18 20 23 23 23 24 26 26 27 28 28 29 29
37 38 38 37 37 37 38 40 41 42 43 43 43 43 42 41 39 38 36 35 33 32 32 32 31 29 27 25 24 23 22 21 19 19 17 16 16 16 15 14 13 13 13 14 15 15 14 14 14 14 14 14 14 14 14 14 13 13 13 11 10 10 10 12 13 14 15 15 15 15 17 20 20 19 21 23 24 24 25 26 26 27 27 25 26
36 36 35 35 35 36 37 39 40 41 42 42 43 43 42 41 40 39 38 37 35 35 34 34 32 30 28 26 24 23 22 21 20 20 19 18 17 16 15 14 14 13 14 15 15 16 15 15 15 15 15 15 16 15 15 15 14 14 13 11 10 11 11 12 13 14 15 15 16 16 17 19 20 19 20 22 24 25 26 26 25 25 25 24 24
35 35 34 34 35 36 37 38 39 41 41 42 42 42 42 42 41 40 39 38 37 36 36 35 33 31 30 27 26 24 23 22 22 21 20 19 18 18 17 15 15 14 15 16 17 17 16 16 16 17 17 17 17 17 17 16 15 14 13 11 10 10 12 13 14 14 14 16 18 18 16 17 19 19 19 21 24 26 25 25 25 24 24 24 25
34 33 33 34 34 34 36 37 38 39 40 41 41 41 42 42 42 41 40 39 39 38 37 36 34 33 31 28 27 26 25 24 24 23 22 20 19 19 18 16 16 16 17 18 18 18 17 17 17 17 18 18 18 18 18 17 15 14 12 11 10 10 12 13 13 13 14 15 17 17 16 16 18 20 20 20 22 23 23 23 24 25 26 27 27
32 32 32 33 33 34 35 37 37 38 38 39 40 41 42 42 42 41 41 40 40 39 38 37 36 34 32 30 29 28 27 26 26 25 23 22 21 21 20 18 18 18 19 19 19 19 18 18 18 18 19 19 19 19 19 17 16 15 13 12 12 12 13 13 13 13 14 14 14 16 17 17 17 18 20 21 20 20 19 21 22 23 26 28 27
31 32 33 34 35 35 36 37 37 37 37 38 39 40 42 43 42 42 41 40 40 39 39 39 38 36 34 33 32 31 29 28 27 27 25 24 23 23 23 21 20 20 21 21 20 20 19 19 20 20 20 20 20 19 19 17 16 15 14 13 14 15 15 14 13 13 14 14 14 16 16 15 16 19 21 21 19 18 19 20 20 19 22 25 25
34 36 36 37 37 37 37 37 36 36 36 37 39 41 42 43 42 41 41 40 40 41 41 41 40 38 37 36 35 34 31 30 29 29 28 26 26 26 26 25 23 23 23 23 22 21 21 21 21 21 22 21 21 20 18 17 17 17 16 16 18 18 18 17 16 15 14 14 15 15 15 16 19 23 23 20 17 15 17 19 17 16 18 19 18
37 37 37 36 35 35 35 36 36 36 37 39 41 42 42 42 42 42 42 42 42 43 43 42 41 40 39 38 37 36 33 31 31 31 30 29 28 28 28 27 26 26 25 25 25 24 23 23 22 23 24 22 21 20 19 18 18 18 18 19 21 21 20 19 18 17 16 15 15 15 17 21 23 23 20 17 14 11 12 14 15 15 16 15 16
36 35 34 34 34 35 35 36 37 38 39 41 42 42 41 40 40 41 42 42 43 42 42 42 42 42 41 40 39 37 35 33 33 33 32 30 30 31 30 30 29 29 28 28 28 27 26 25 24 24 25 23 22 21 20 19 19 19 19 21 22 22 20 19 19 20 19 16 17 19 21 22 22 20 17 15 13 10 9 10 12 14 16 16 17
33 32 33 33 34 35 36 37 38 39 40 41 41 41 40 39 39 40 41 41 41 40 40 41 42 43 43 42 40 39 37 35 34 35 34 32 32 32 33 33 33 32 31 30 30 29 28 26 25 25 25 24 23 22 20 20 20 20 21 22 22 22 20 19 20 20 19 17 19 22 23 22 20 18 16 15 13 11 9 9 10 12 15 18 18
31 32 32 33 34 35 36 37 38 39 40 40 39 39 39 39 39 39 40 40 39 39 39 40 41 43 43 42 42 41 40 38 37 36 35 34 34 34 36 37 35 34 33 32 32 32 30 28 27 25 25 24 23 22 22 21 20 21 23 23 22 20 19 19 19 18 18 19 22 24 23 21 19 17 16 15 13 12 10 10 10 11 13 16 18
30 30 31 31 33 34 35 36 37 38 38 38 37 38 38 38 38 38 38 39 39 39 39 39 40 42 42 42 43 43 42 41 40 38 37 36 36 37 38 39 37 35 35 34 34 34 32 30 28 26 24 24 23 22 22 22 21 22 22 21 19 17 17 19 20 19 20 22 24 24 22 20 19 18 16 15 14 13 12 12 12 12 13 15 17
26 27 28 29 31 32 33 34 35 36 37 37 37 37 37 37 37 37 37 38 38 38 39 39 39 40 41 42 44 45 44 44 43 42 40 39 39 39 40 39 37 37 37 37 37 35 32 30 29 26 24 24 23 22 22 21 21 21 21 19 17 16 18 20 21 20 22 24 25 24 22 20 19 18 16 16 15 14 14 14 14 14 15 16 17
22 23 25 26 28 29 31 32 33 34 35 36 36 36 36 35 36 36 37 37 36 37 39 38 38 39 41 43 45 46 46 46 45 45 44 42 42 41 40 37 35 36 39 39 38 35 32 31 30 27 23 22 22 22 21 21 21 21 20 18 16 16 18 21 22 22 23 24 24 24 22 19 18 18 17 17 17 16 15 15 15 16 17 18 20
18 20 21 23 25 26 28 29 31 32 33 34 35 36 36 35 35 36 36 36 36 37 38 38 38 39 40 42 46 48 47 47 47 47 46 45 44 42 40 36 33 32 35 36 36 34 32 30 28 25 22 21 21 22 22 23 22 22 20 18 16 17 20 22 23 24 24 24 24 23 21 19 18 18 18 18 18 17 16 16 17 18 19 21 23
15 16 18 20 21 23 25 27 28 30 31 32 34 35 35 36 36 36 36 36 37 38 37 36 36 37 39 42 45 45 43 44 46 47 46 45 45 43 41 37 32 29 30 33 33 32 30 28 25 21 20 21 22 23 24 24 24 24 23 21 20 21 22 22 23 24 25 24 24 23 21 19 18 18 18 19 19 18 16 16 18 20 21 23 26
12 13 15 17 18 20 22 24 25 27 29 30 32 33 34 35 35 35 36 37 37 37 37 35 35 35 37 41 43 40 38 40 42 43 42 42 43 43 41 38 34 31 31 33 32 30 29 26 23 20 20 21 22 23 24 26 27 27 26 25 25 24 23 23 24 25 24 24 23 22 20 18 17 18 19 19 19 18 15 15 18 20 22 24 26
11 12 13 14 16 18 20 21 23 25 27 29 31 33 34 35 36 38 39 39 39 38 37 36 37 38 38 39 38 35 36 39 41 42 41 40 40 40 40 41 40 38 38 36 32 29 28 25 23 22 22 23 24 24 25 27 28 29 28 27 26 24 22 22 24 24 24 23 22 21 20 18 17 18 18 19 19 18 16 15 16 19 21 22 23
11 12 13 14 16 17 19 21 22 24 26 28 30 32 34 35 37 39 40 40 39 39 38 38 39 39 38 38 35 33 36 39 39 39 37 36 36 35 36 39 41 42 41 36 30 29 28 27 26 26 26 27 27 27 27 27 27 28 28 27 25 24 23 23 25 26 24 22 21 21 20 18 18 18 18 19 19 18 16 16 16 18 20 21 23
10 12 13 15 16 17 19 20 22 24 25 27 28 30 31 32 34 36 37 36 36 36 36 36 37 35 34 36 35 34 37 38 35 33 32 31 31 30 29 32 36 40 40 34 28 28 30 29 29 29 28 28 28 28 28 28 28 28 27 25 24 24 23 25 26 25 24 22 22 21 20 19 18 17 17 19 19 18 17 16 16 17 18 21 23
11 13 14 15 16 17 18 19 20 22 24 25 26 27 28 29 31 32 33 33 32 32 32 33 34 32 32 34 34 34 35 34 31 30 30 28 28 27 27 28 31 35 35 31 29 30 30 29 29 29 28 28 29 29 28 29 30 30 28 26 25 25 25 26 26 25 24 23 22 22 21 19 18 17 17 18 18 19 18 18 17 17 18 20 22
11 12 13 13 14 15 17 18 19 20 21 22 23 24 25 26 27 28 29 29 29 29 27 28 28 28 27 28 28 30 30 29 27 27 25 23 23 24 25 25 26 27 27 27 30 32 30 28 28 28 27 27 28 28 28 29 31 31 29 28 28 27 27 27 26 24 24 23 22 22 21 19 18 17 16 16 17 18 18 19 18 18 19 21 22
9 10 11 11 12 13 15 16 17 18 19 20 21 22 22 23 24 25 24 23 24 24 23 22 22 22 21 22 23 24 25 25 23 22 20 20 21 21 21 22 22 22 22 25 29 30 29 28 28 27 26 26 27 27 28 30 31 30 30 29 29 29 28 27 25 24 24 23 23 23 21 20 18 17 16 16 16 17 18 18 19 19 19 21 22
7 8 9 10 11 11 12 13 14 16 17 18 19 19 20 20 21 22 21 20 20 21 20 20 19 18 19 20 20 21 22 21 21 19 17 17 19 19 19 20 21 21 24 28 29 28 26 26 27 26 25 26 27 28 28 29 29 29 29 29 29 29 27 25 25 25 25 24 24 23 21 20 18 17 17 16 15 16 18 18 18 18 18 20 21
7 7 8 10 10 11 11 12 12 13 14 15 16 17 17 18 18 19 19 19 19 19 18 17 16 16 17 17 17 17 18 19 19 19 18 17 16 16 17 19 20 22 24 27 28 27 26 26 27 27 28 28 29 29 29 30 30 29 28 29 30 28 26 24 24 26 26 26 25 23 22 20 19 18 17 17 16 17 18 18 17 18 18 19 21
7 8 8 9 10 10 10 11 11 11 12 12 13 14 14 15 16 16 16 16 17 17 17 16 15 14 15 15 16 16 16 15 16 16 18 18 17 16 19 21 21 21 22 24 25 25 24 25 25 26 27 28 29 30 31 31 30 28 27 28 28 27 24 23 24 25 26 26 25 24 22 21 20 18 17 17 17 18 18 18 18 18 18 18 19
6 7 7 8 8 9 9 9 9 10 10 10 11 11 12 13 13 13 14 14 14 15 15 14 14 13 13 13 14 16 17 17 16 15 15 16 15 17 19 21 19 19 20 22 24 25 26 27 26 25 25 25 27 28 28 28 27 25 25 26 26 25 24 24 23 24 25 26 25 24 23 22 20 18 17 18 18 19 19 18 17 18 18 18 18
5 5 5 6 6 6 7 7 7 7 7 8 8 9 9 10 10 10 11 11 12 12 12 12 12 12 11 11 11 13 15 16 17 16 16 15 14 13 14 15 14 14 15 16 17 20 23 25 26 26 25 25 24 24 24 24 23 23 23 24 26 26 25 24 23 23 25 26 26 25 24 23 21 19 18 19 19 19 19 18 17 17 19 18 17
4 4 4 4 4 4 4 4 4 4 4 5 5 6 6 7 8 9 9 10 10 10 10 10 10 10 10 10 10 12 13 14 14 14 15 16 16 16 15 15 15 14 14 14 13 14 16 18 19 21 22 22 23 23 23 23 23 24 25 26 27 28 27 25 24 24 26 27 27 25 24 23 21 19 19 19 20 19 19 19 17 16 17 18 19
3 3 3 3 3 3 3 3 3 3 3 3 3 4 5 6 6 7 8 8 9 8 8 9 9 9 9 9 9 10 12 13 13 13 13 14 16 17 18 19 19 18 18 17 17 16 17 17 18 18 19 20 21 22 23 23 24 25 26 26 27 28 27 25 25 25 26 27 27 26 24 22 21 20 20 20 19 19 19 18 17 16 16 19 21
4 4 3 3 3 3 2 2 2 2 2 2 3 3 4 5 5 6 7 7 7 7 7 7 8 8 8 7 6 7 9 11 11 11 12 12 13 15 16 17 18 18 19 19 19 19 19 19 19 19 20 20 20 21 21 22 22 24 25 25 26 26 26 25 25 25 26 27 27 26 24 22 21 21 21 20 19 19 18 17 17 17 18 20 20
6 5 5 4 4 3 3 2 1 1 2 2 2 2 3 4 4 5 5 6 6 6 7 7 7 8 7 6 5 6 8 9 9 10 11 11 12 12 13 14 15 16 17 17 18 18 20 20 21 21 21 21 21 21 21 22 22 22 24 24 25 26 26 26 25 25 25 26 27 25 23 21 21 21 21 19 19 19 18 18 18 18 19 19 18
5 5 5 4 4 3 3 2 2 2 2 2 2 3 3 4 4 4 5 5 5 6 7 7 8 9 8 8 8 9 10 10 10 11 12 12 13 14 14 15 16 16 17 18 19 20 21 22 23 22 22 21 20 20 20 20 21 21 23 24 24 25 25 25 25 24 25 26 26 24 21 21 21 21 20 19 19 19 19 19 18 18 18 18 18
4 4 3 3 2 2 2 2 2 2 2 3 3 3 3 3 4 4 5 5 6 6 7 8 9 9 10 9 10 10 11 11 12 12 12 13 14 14 14 15 16 16 17 18 19 20 22 23 24 24 24 23 21 20 19 18 19 20 21 22 22 23 23 23 24 23 24 24 24 22 20 20 20 20 20 20 19 19 19 19 18 17 17 16 16
3 2 2 2 2 2 2 2 2 2 2 2 2 3 3 4 4 4 5 6 6 7 7 8 9 9 10 10 10 10 10 10 11 11 12 12 12 12 12 13 13 14 15 15 16 17 19 21 22 23 24 24 23 22 21 20 20 21 22 23 23 23 22 22 22 22 22 22 22 21 20 20 20 21 20 20 19 19 20 19 17 16 15 15 15
2 2 1 1 1 1 1 1 2 2 2 3 3 4 4 5 5 5 6 6 7 7 8 8 8 9 9 9 9 9 9 9 10 10 11 11 11 12 12 12 13 13 13 14 14 15 16 17 19 21 22 22 23 23 22 22 23 24 24 24 24 23 21 20 20 21 22 21 21 21 21 21 21 21 20 20 19 19 19 18 17 16 16 16 16
1 2 1 1 1 1 1 2 2 3 3 4 4 5 5 5 6 6 6 6 7 7 8 8 8 8 8 8 8 9 9 9 10 10 10 11 11 11 11 12 13 13 13 14 14 14 15 16 17 18 19 20 20 20 20 20 21 22 23 22 21 20 19 19 20 21 21 21 21 21 21 22 22 21 20 20 20 20 19 18 18 17 17 17 17
2 2 2 1 1 1 1 2 2 2 3 3 4 4 4 5 5 6 6 6 7 7 7 7 8 8 8 9 9 9 9 10 11 11 11 11 11 12 12 13 13 14 14 14 14 14 15 16 16 17 18 18 19 19 19 19 19 20 20 20 19 18 18 18 19 20 20 20 20 21 21 21 21 20 20 20 20 20 20 19 19 18 18 17 16
3 3 2 2 2 2 2 2 2 2 3 3 3 3 4 5 5 5 6 7 7 7 8 8 8 8 9 9 9 10 10 11 12 12 12 12 12 12 13 13 14 14 15 15 15 15 15 16 16 17 18 18 19 19 19 19 19 19 19 19 18 18 18 18 19 20 20 19 19 20 20 21 20 20 20 20 20 19 19 19 18 18 17 17 16
3 3 3 3 3 3 3 3 3 3 4 4 4 5 5 6 6 6 7 8 8 8 8 9 9 10 10 11 11 11 12 13 13 13 13 13 13 13 13 14 14 15 15 16 16 16 16 16 16 17 17 18 18 18 19 19 19 19 19 18 18 17 18 18 19 19 19 18 19 19 19 19 20 20 20 19 19 19 19 18 18 17 17 16 15
3 3 3 2 3 3 3 4 4 5 5 6 6 7 7 8 8 8 8 9 9 9 10 10 10 11 12 12 12 13 14 14 14 15 14 14 14 14 14 15 15 16 16 17 17 17 17 17 17 17 17 17 18 18 18 18 17 17 17 17 17 17 17 18 18 18 17 18 18 19 19 19 19 19 19 18 18 18 18 17 16 16 15 14 14
Wind_Direction
189 188 188 187 187 186 185 185 184 183 182 181 180 178 177 176 176 176 175 173 174 174 175 175 175 176 177 177 175 173 170 163 158 158 160 171 186 198 207 206 205 210 211 209 206 207 216 223 227 228 226 232 236 230 225 234 244 250 274 299 305 293 290 283 269 285 301 310 312 315 321 325 328 332 333 334 337 337 335 336 336 336 335 333 331
189 189 188 188 189 188 187 186 186 186 185 184 183 181 180 180 179 179 178 177 177 178 178 178 178 180 181 180 180 178 172 165 163 167 172 184 196 204 210 212 213 216 217 218 217 217 223 228 232 234 233 234 236 236 239 246 256 274 287 293 299 298 291 288 280 282 297 308 314 318 323 327 328 331 334 333 333 333 331 330 331 331 330 329 327
189 189 188 188 189 189 188 188 188 188 188 186 186 184 183 183 183 183 181 180 180 181 181 181 182 184 184 184 184 181 174 169 171 177 184 193 203 209 213 214 215 219 223 224 225 225 226 230 233 235 236 238 238 240 248 259 266 278 288 293 298 301 294 288 285 283 295 306 314 320 324 327 328 329 332 330 328 328 327 326 327 327 327 326 323
189 188 188 189 189 189 189 190 190 191 190 189 188 188 187 186 186 185 184 183 182 182 184 184 185 187 187 188 187 183 177 176 180 186 192 199 205 210 213 215 217 222 225 227 229 229 229 232 235 237 238 237 241 247 250 261 271 277 288 296 299 299 299 298 296 294 297 302 309 317 322 324 324 326 329 328 325 324 323 323 324 324 324 324 322
189 189 188 188 189 190 190 191 192 193 193 192 191 190 189 189 188 188 187 186 184 184 185 187 189 190 192 192 189 185 183 185 187 190 196 201 205 210 215 218 222 225 228 231 232 232 234 237 240 243 244 243 245 252 256 261 271 280 290 296 298 298 305 314 314 309 300 299 306 314 319 320 321 323 327 326 323 322 322 322 324 324 323 323 322
189 188 189 189 190 191 192 193 193 194 195 193 192 192 192 191 190 190 190 188 187 186 187 190 191 193 196 196 191 187 188 191 192 193 198 203 207 214 218 221 225 228 230 235 237 239 241 243 247 248 249 251 251 253 260 264 272 283 289 291 295 300 307 317 319 312 301 297 304 310 315 318 319 319 323 325 321 320 321 321 323 325 323 322 321
189 189 189 190 191 192 194 194 194 195 196 195 194 194 194 194 193 191 192 191 190 189 190 192 194 197 199 197 192 191 192 193 195 197 200 204 210 216 221 224 227 230 234 238 241 246 247 248 251 253 253 256 256 256 261 265 271 281 284 286 292 298 305 311 311 305 299 299 302 306 311 316 318 317 320 323 320 318 320 320 321 324 324 321 319
190 190 190 191 193 195 195 196 196 196 197 196 195 196 196 196 195 193 193 194 194 193 193 194 195 198 200 198 195 194 194 197 199 200 200 204 210 217 223 225 228 232 237 243 246 249 251 251 252 254 255 257 258 258 260 264 271 275 277 281 286 292 298 301 301 300 299 299 301 305 310 313 317 317 319 323 323 321 324 320 317 319 321 319 317
191 191 192 194 195 196 196 196 197 197 197 196 196 197 197 197 196 196 195 196 196 197 197 197 197 198 199 199 197 196 197 200 203 203 203 205 211 218 223 226 230 235 239 245 250 250 250 252 252 253 255 255 255 258 259 261 267 271 273 276 279 283 289 290 292 296 298 296 299 304 307 308 314 318 319 322 322 320 321 320 315 316 319 317 314
193 194 195 196 197 196 196 197 197 198 198 198 198 198 198 198 198 197 197 198 198 199 199 200 201 200 199 199 198 198 200 202 205 207 206 207 213 219 224 228 230 235 241 246 250 251 250 250 252 253 254 253 253 253 254 255 256 259 265 270 273 276 279 281 286 292 293 291 296 305 308 307 312 316 314 316 319 318 319 319 316 317 320 317 312
195 197 197 197 197 197 197 197 198 198 199 199 199 199 200 200 199 199 199 199 200 201 202 203 203 202 202 201 200 201 201 203 206 209 209 210 215 220 225 230 232 237 243 246 249 251 250 250 252 252 252 254 254 252 253 253 251 251 255 259 261 266 271 277 284 288 289 290 296 304 306 305 308 311 311 314 317 317 317 317 317 318 320 318 312
197 198 199 198 199 199 199 198 199 200 200 200 201 201 201 201 201 201 201 202 202 203 205 206 205 204 204 204 203 203 203 204 208 212 214 214 217 222 226 231 235 239 244 247 248 249 250 251 252 252 252 254 254 254 253 251 250 252 254 250 249 254 261 269 277 283 287 292 297 300 299 299 304 308 311 313 315 315 316 316 316 316 314 312 307
197 199 200 200 201 201 200 200 200 201 201 202 202 202 202 203 203 204 204 204 205 206 207 208 207 205 205 205 205 206 205 207 211 214 217 218 221 224 227 232 237 241 244 247 248 249 250 251 251 252 254 253 254 256 255 254 253 252 249 246 248 253 259 265 268 273 281 288 292 292 292 297 301 304 307 311 314 315 315 314 314 313 309 306 303
197 200 201 202 204 203 202 202 202 202 203 203 204 204 204 205 206 206 207 206 207 208 209 209 209 208 208 207 209 209 208 209 213 217 219 222 226 228 229 231 237 241 245 246 248 251 253 254 253 254 254 253 255 256 256 256 255 250 244 245 254 261 263 263 263 269 277 281 283 286 289 293 296 299 305 311 313 312 312 311 312 310 306 302 301
199 201 203 205 206 205 204 204 204 204 205 205 205 206 207 208 208 208 209 209 210 210 211 211 211 211 210 210 212 213 211 210 214 219 221 223 228 232 234 233 235 241 245 246 248 252 255 256 257 255 254 254 255 255 256 255 251 246 245 253 265 269 264 262 268 276 280 276 275 282 287 290 293 299 305 309 308 307 306 305 305 307 306 305 306
202 204 206 208 208 208 207 206 205 206 206 206 207 208 209 210 210 210 211 212 213 213 214 215 215 213 213 213 214 215 214 213 216 221 223 224 225 230 236 239 239 242 246 248 250 252 254 256 256 256 255 254 253 253 253 251 246 244 250 262 270 266 261 266 272 273 276 278 279 282 284 287 294 300 303 304 304 306 305 304 309 315 313 310 310
206 208 210 211 211 210 208 207 206 207 207 208 210 211 212 213 213 213 213 214 214 215 217 217 217 217 216 216 217 217 216 215 218 222 224 225 225 227 234 239 241 244 248 250 251 252 254 256 256 257 256 253 252 250 244 241 243 246 255 263 263 258 262 272 274 270 274 278 278 277 278 284 294 298 298 299 303 308 309 310 318 324 319 313 312
211 211 212 212 212 211 210 209 209 209 210 212 214 215 215 215 215 215 216 217 218 219 220 220 221 221 221 220 221 221 219 218 221 224 225 225 226 229 234 238 241 245 249 251 252 252 253 256 257 257 257 255 253 246 237 234 238 243 251 255 254 256 266 274 275 278 283 279 273 274 280 288 295 298 298 301 307 313 310 308 314 318 313 309 309
214 212 213 214 214 214 213 212 213 213 214 217 218 218 218 218 219 219 219 221 222 222 223 223 224 225 225 225 225 225 224 223 224 226 227 226 227 231 234 236 240 244 248 250 252 252 253 255 256 257 258 257 253 244 234 231 237 243 249 250 252 261 270 273 277 285 287 279 274 280 287 294 298 298 299 306 314 322 315 304 304 308 306 303 305
216 215 216 216 216 217 216 216 216 217 219 221 221 222 222 222 222 222 223 224 224 225 226 227 228 229 229 229 229 229 229 228 228 229 229 228 228 232 234 236 240 245 247 249 251 253 253 255 256 256 256 256 252 245 236 232 239 248 250 249 256 267 274 277 281 284 280 274 276 284 292 298 300 300 304 312 318 325 324 313 306 304 300 300 302
218 217 217 217 218 219 219 220 221 222 223 224 224 225 226 225 226 226 227 227 227 228 229 230 231 233 233 232 232 233 233 232 231 232 232 230 229 232 236 239 242 245 247 249 250 252 253 256 257 256 254 252 248 243 238 237 241 247 249 252 261 270 276 279 279 276 272 274 280 288 294 298 299 301 308 314 318 323 325 322 318 310 301 298 300
218 217 217 219 220 221 222 223 224 225 226 226 226 228 229 229 229 230 230 230 230 231 232 233 235 237 237 236 235 236 236 235 235 234 234 234 232 233 238 243 245 245 246 248 250 252 254 256 258 257 254 250 244 239 238 239 240 243 248 254 261 267 273 275 275 273 274 278 284 290 294 296 297 301 308 313 318 320 321 322 321 315 308 302 299
218 218 219 221 223 224 225 226 227 227 228 228 228 230 231 230 231 231 231 232 233 234 235 236 238 240 241 240 239 238 238 238 237 236 236 235 235 235 238 243 245 245 245 248 250 253 255 257 259 258 254 249 244 239 239 240 240 242 246 252 258 264 269 271 271 273 275 280 285 289 291 293 297 302 308 313 316 317 318 319 318 318 317 312 305
218 220 222 224 226 228 229 230 231 230 231 231 230 231 232 231 231 232 232 232 233 235 237 238 238 241 243 244 243 242 241 240 240 239 238 237 236 236 236 238 242 245 248 250 251 253 255 257 258 257 254 248 241 239 239 239 238 240 244 248 253 259 264 267 270 272 275 280 284 285 287 292 297 301 308 313 314 314 315 313 313 318 321 318 315
219 223 226 228 230 232 232 233 233 233 233 232 232 231 232 231 231 232 232 232 232 235 237 238 238 240 243 245 247 247 246 245 244 242 241 239 238 236 235 235 237 241 247 252 254 255 257 258 258 257 253 245 237 237 239 237 237 240 239 238 244 255 262 265 268 270 274 277 280 281 284 290 294 299 305 310 310 311 312 311 312 319 324 324 322
222 226 229 232 233 233 233 234 235 235 235 235 235 235 234 233 233 232 232 232 233 235 236 237 238 240 242 246 249 249 249 249 248 247 245 242 240 238 237 236 235 237 244 252 258 260 259 258 257 253 245 236 232 235 237 236 237 238 235 234 245 259 267 268 267 269 271 274 275 278 282 287 291 296 302 305 304 306 312 315 316 320 326 327 324
222 226 229 233 234 233 235 236 236 236 236 236 236 237 236 236 235 233 233 232 232 234 236 236 237 239 242 246 249 251 252 252 252 251 250 248 246 243 240 238 237 236 238 243 248 253 254 254 251 244 236 233 234 237 238 238 239 239 237 240 251 263 271 272 269 268 269 270 273 276 280 285 289 294 298 300 300 304 312 318 319 321 325 326 322
222 227 229 231 233 234 236 237 237 237 237 237 237 236 236 236 235 236 238 237 235 235 236 236 238 240 242 246 250 252 253 254 254 255 255 254 253 251 248 245 241 237 236 236 237 241 246 247 243 235 232 233 235 235 236 237 238 239 240 244 251 262 272 274 269 266 267 269 272 276 279 283 286 291 295 297 299 304 311 316 317 319 322 322 317
226 230 231 232 234 236 237 237 238 239 239 239 240 240 240 239 239 242 245 244 242 242 241 242 245 245 246 248 250 250 254 258 260 262 263 262 262 260 258 255 250 243 239 235 233 235 238 238 236 231 229 231 231 231 232 234 234 237 240 244 250 260 269 271 267 265 266 268 270 272 275 279 283 288 293 296 297 303 310 315 318 319 319 317 312
230 231 233 235 237 238 239 239 240 241 241 242 243 244 243 243 244 247 249 248 248 248 247 249 252 253 254 255 255 255 259 265 268 270 272 272 271 269 267 263 258 250 242 234 230 233 234 233 233 231 229 229 229 229 231 233 234 236 239 243 251 260 267 269 267 265 265 266 267 269 272 276 281 286 291 293 297 302 306 312 317 317 315 313 310
236 237 239 242 243 243 245 245 245 245 245 245 247 248 248 248 247 247 249 251 252 252 252 253 255 257 259 262 263 264 266 269 271 273 274 273 272 272 270 266 260 253 245 235 229 231 232 231 233 233 230 230 231 231 232 235 237 240 243 249 256 261 264 267 268 266 265 265 265 266 269 273 278 284 288 291 296 301 303 308 314 314 312 310 306
248 249 251 253 254 254 254 253 252 251 251 250 250 251 253 254 254 252 252 253 255 257 258 258 259 259 259 263 267 270 272 273 274 273 269 264 262 263 264 259 252 248 241 230 226 229 231 231 234 234 232 232 232 233 234 236 239 242 246 252 256 258 262 268 271 269 265 263 263 264 266 270 275 280 284 288 293 297 300 304 309 312 311 308 304
261 266 268 269 268 266 264 262 260 259 258 258 257 256 256 258 261 263 263 261 260 259 258 258 260 261 260 260 263 268 273 276 276 272 265 259 258 257 254 250 244 236 226 221 224 230 232 233 236 236 234 233 235 235 236 237 239 243 247 251 254 258 262 269 272 269 263 261 262 263 264 268 272 277 280 283 287 293 297 300 305 309 308 306 304
263 270 273 276 277 276 276 274 271 269 267 266 264 264 263 263 266 270 273 273 270 267 263 260 259 260 262 263 264 265 268 269 268 265 261 260 259 256 252 248 244 235 226 222 226 231 233 234 237 238 237 237 237 237 237 239 241 244 247 251 254 257 260 265 269 267 264 262 261 262 264 266 269 273 276 279 282 288 291 294 300 304 303 302 303
267 270 274 277 279 280 281 279 278 277 274 272 271 271 272 271 271 272 274 276 277 278 277 274 267 260 258 261 264 267 269 269 267 264 262 259 255 252 251 249 243 237 232 230 230 232 233 235 238 239 238 239 239 239 240 241 243 245 248 251 253 254 257 263 267 267 265 262 261 262 263 265 267 269 272 275 279 282 286 290 295 297 297 297 300
280 280 280 281 282 282 282 280 279 278 276 275 275 274 273 273 272 272 273 275 276 278 282 284 281 272 262 258 258 260 262 265 267 266 265 261 252 244 244 246 242 236 234 235 236 239 240 240 242 241 240 239 240 242 242 243 244 247 251 253 252 253 257 264 268 268 264 261 261 262 262 263 266 268 270 273 277 278 281 287 291 292 293 294 297
297 294 291 291 289 287 285 283 281 278 276 274 273 272 271 271 270 271 272 272 274 278 283 286 287 284 278 271 265 261 259 259 260 260 260 259 251 239 238 243 244 241 240 240 242 245 247 249 251 251 249 246 245 245 245 245 247 251 254 253 253 257 264 269 270 267 263 260 261 262 262 263 266 268 270 272 275 277 281 285 288 289 292 294 295
317 316 313 309 304 301 299 296 291 286 283 280 279 277 276 275 273 273 274 275 278 281 284 287 289 288 287 284 277 272 270 268 265 260 256 255 252 247 246 248 251 252 255 254 252 251 252 254 256 258 258 256 254 252 252 253 255 258 259 258 259 265 269 269 267 264 261 259 260 260 261 263 265 267 270 271 272 276 281 284 285 289 292 294 293
346 344 343 339 339 337 332 327 321 312 304 299 295 291 288 285 284 282 281 282 283 283 285 288 288 287 288 286 280 278 280 281 280 274 267 261 260 261 265 271 274 276 278 278 275 271 269 267 267 267 266 266 265 265 265 266 267 267 266 264 265 267 266 264 263 262 260 259 260 260 261 263 266 268 269 270 271 275 280 283 285 287 288 289 290
10 7 3 1 2 -0 352 344 335 321 309 301 294 291 289 287 287 286 285 285 285 286 288 288 287 287 288 287 284 286 288 288 287 286 282 275 269 268 271 276 281 284 286 287 286 284 283 282 281 280 278 277 276 275 274 274 273 271 269 266 265 264 263 262 264 264 261 259 260 261 261 262 265 267 268 269 272 276 279 282 283 282 281 283 287
30 32 32 29 27 23 9 349 331 317 303 290 283 281 280 281 283 284 284 284 283 284 283 283 283 283 284 290 302 308 302 296 293 292 290 287 282 278 277 279 282 285 288 290 291 290 289 288 288 288 286 286 284 283 282 281 278 275 271 269 266 265 265 266 266 265 262 260 260 261 261 262 264 266 269 271 275 277 277 277 278 278 281 285 287
54 58 59 57 56 55 54 49 26 358 331 310 300 293 290 290 290 286 285 284 285 285 284 282 282 282 282 289 303 302 292 288 288 287 285 286 285 284 282 282 283 285 287 289 290 290 290 290 290 290 290 290 290 289 287 285 282 278 275 272 270 269 268 268 267 265 263 262 262 262 263 263 264 267 271 273 275 275 275 275 276 280 284 286 285
76 76 76 75 73 67 65 63 37 358 336 327 323 314 307 302 295 288 287 287 284 284 285 283 283 283 281 279 278 276 275 277 279 280 280 280 280 281 282 282 282 282 283 283 283 284 284 285 286 286 287 288 289 290 289 286 283 280 277 275 274 273 271 269 268 265 263 263 264 264 265 265 266 269 272 273 273 273 274 275 278 282 284 285 286
86 84 81 76 65 51 42 34 6 348 343 334 326 319 310 303 294 287 285 283 281 281 283 283 284 285 284 282 280 278 277 278 280 282 284 284 284 284 285 285 285 283 282 281 282 282 282 282 283 283 283 283 282 283 284 283 281 280 280 279 278 277 274 273 271 268 267 266 267 268 268 267 268 270 271 272 273 273 273 275 279 282 283 283 285
66 66 59 50 41 27 17 9 351 339 332 322 314 312 303 297 293 289 286 285 284 284 284 285 287 288 288 287 287 287 286 285 286 287 289 291 293 294 294 293 292 290 288 286 285 284 283 284 285 285 285 284 282 280 279 278 277 278 279 281 281 280 279 276 273 272 271 270 270 271 270 268 269 271 272 272 273 272 273 276 278 279 279 280 279
57 59 57 53 41 0 336 327 313 303 301 298 296 295 292 289 288 288 286 286 288 288 288 289 291 292 293 294 295 296 296 296 295 296 297 298 299 300 300 299 296 294 293 292 290 287 285 285 286 287 288 288 287 286 282 280 277 276 276 278 279 279 277 274 271 270 270 270 270 271 270 270 270 270 271 272 272 272 273 275 274 274 276 277 277
55 56 55 44 28 0 325 309 305 302 299 294 290 290 289 286 286 288 288 290 292 293 294 297 297 297 298 299 299 299 300 298 297 297 298 299 299 299 299 297 296 294 294 294 292 292 291 289 287 287 287 287 288 288 286 283 280 278 277 277 277 275 272 268 266 267 268 268 269 269 268 269 269 269 269 271 271 269 270 270 271 274 277 276 276
55 55 47 33 25 8 340 332 326 311 303 300 298 295 294 290 291 294 295 295 295 296 296 298 299 298 297 296 296 297 296 295 295 297 298 299 302 303 301 300 299 298 297 297 295 294 293 291 288 287 286 285 285 284 283 282 280 278 278 278 277 274 270 267 265 266 266 265 265 265 264 264 266 266 266 267 267 267 269 270 271 275 277 277 277
65 63 57 47 38 25 7 358 349 332 324 321 310 302 301 298 297 297 296 293 294 296 297 297 297 295 294 294 296 297 298 297 298 301 302 303 305 306 304 302 302 300 300 301 301 299 297 295 292 289 287 285 284 284 283 283 281 280 280 280 278 275 271 266 264 264 263 262 262 261 260 261 262 263 264 266 266 267 269 271 273 276 278 276 275
59 55 50 42 32 20 7 355 343 331 325 318 310 306 304 300 297 297 296 293 293 295 296 296 296 296 296 298 299 300 301 301 301 302 303 303 304 304 301 299 300 300 301 301 301 300 298 295 292 290 287 285 284 284 284 284 284 283 282 280 277 273 269 266 264 264 263 262 260 259 258 259 261 261 262 263 265 266 269 271 273 275 275 273 271
41 36 29 16 4 352 336 328 322 314 308 306 304 302 299 297 296 295 293 292 293 295 295 295 295 295 297 299 300 300 300 300 299 299 300 300 300 299 299 298 298 297 297 297 297 297 296 294 292 291 289 287 285 285 284 283 284 283 282 280 277 273 270 268 266 266 265 263 261 260 258 258 259 260 261 263 264 265 268 272 273 273 273 272 271